User: anonymous   Login
Location: Valdosta
(30.8330°N, 83.2790°W)
Time: 09:19:33
(UTC-04:00)
Language:

Uribyol 2 - Orbit

View from above orbital plane
View from above orbital plane
View from above satellite
View from above satellite

Ground track
Ground track

The orbit data is extracted from the following two-line orbital elements,

1 22828U 93061F   14305.09594777  .00000182  00000-0  87044-4 0  7505
2 22828 098.6647 249.9957 0009433 213.6510 146.4075 14.30373044 68815
Epoch (UTC): 01 November 2014 02:18:09
Eccentricity: 0.0009433
inclination: 98.6647°
perigee height: 784 km
apogee height: 797 km
right ascension of ascending node: 249.9957°
argument of perigee: 213.6510°
revolutions per day: 14.30373044
mean anomaly at epoch: 146.4075°
orbit number at epoch: 6881

The dashed part of the orbit path shows where the satellite is in the earth's shadow,  

DLR